[[{"header":{"parameterUnit":"m.s-1","parameterCategory":1,"la1":30.2991,"la2":30.254,"lo1":-89.0895,"lo2":-89.0444,"dy":0.0017,"dx":0.0017,"nx":28,"ny":28,"refTime":"2023-07-20T09:00:00:Z","depth":0,"parameterNumber":2,"parameterNumberName":"U-component_of_WINDS"},"data":[0,0,0,0,0,0,0,0,0,0,0,0,0,0,0,0,0,0,0,0,0,0,0,0,0,0,0,0,0,0,0,0,0,0,0,0,0,0,0,0,0,0,0,0,0,0,0,0,0,0,0,0,0,0,0,0,0,0,5.3303,5.3304,0,5.3412,5.3413,5.3414,5.3365,5.3362,5.3359,5.3357,5.3467,5.3472,5.3478,0,0,0,0,0,0,0,0,0,0,0,0,0,5.3049,5.3054,5.3303,5.3304,5.3306,5.3412,5.3413,5.3415,5.3365,5.3362,5.3359,5.3355,5.3465,5.3472,5.3478,0,0,0,0,0,0,0,0,0,0,0,0,0,5.3159,5.3056,5.3303,5.3294,5.3294,5.3411,5.3413,5.3415,5.3366,5.3362,5.3358,5.3354,5.3463,5.3471,5.3479,5.3611,0,0,5.3504,5.3508,0,0,0,0,0,0,0,0,5.3153,5.3168,5.3294,5.3295,5.3295,5.3371,5.3364,5.3481,5.3367,5.3339,5.3357,5.3352,5.3438,5.3448,5.3477,5.3616,5.3621,5.3505,5.351,5.3513,5.3516,0,0,0,0,0,0,0,5.3145,5.3163,5.3346,5.3296,5.3297,5.3283,5.3294,5.3386,5.341,5.3341,5.3337,5.3351,5.3438,5.347,5.348,5.3622,5.3505,5.3512,5.3517,5.352,5.387,5.3874,0,0,0,0,0,0,5.3138,5.3157,5.3342,5.3349,5.3212,5.3291,5.3304,5.335,5.3409,5.3414,5.3354,5.3348,5.3458,5.347,5.3483,5.3637,5.3513,5.3521,5.3526,5.3865,5.3871,5.3875,0,0,0,0,0,0,5.3133,5.3155,5.3338,5.3252,5.3275,5.33,5.3353,5.3355,5.3386,5.3419,5.3423,5.3383,5.3455,5.3472,5.3578,5.3641,5.3525,5.3532,5.386,5.3867,5.3873,5.395,0,0,0,0,0,0,5.3126,5.3153,5.3205,5.3254,5.3279,5.3433,5.3357,5.336,5.3401,5.3394,5.3447,5.3451,5.3453,5.3566,5.3587,5.365,5.3538,5.3855,5.3863,5.3871,5.3942,5.3958,5.3972,0,0,0,0,0,5.3117,5.3223,5.3208,5.323,5.3344,5.3437,5.3451,5.3451,5.3406,5.3457,5.3477,5.345,5.3631,5.3578,5.36,5.3667,5.3851,5.3861,5.387,5.3935,5.3955,5.3972,0,0,0,0,0,0,5.3181,5.3229,5.3213,5.3338,5.3384,5.3428,5.3492,5.3473,5.3532,5.3523,5.352,5.3532,5.3642,5.3666,5.3605,5.3795,5.3734,5.3749,5.3775,5.3795,5.381,5.38,5.3545,0,0,0,0,0,5.321,5.3281,5.332,5.3426,5.345,5.3467,5.3508,5.3504,5.355,5.3569,5.3597,5.3643,5.371,5.3754,5.3818,5.3946,5.3954,5.4002,5.4017,5.403,5.4042,5.4106,5.4127,5.3908,5.3908,5.3907,0,0,5.327,5.3305,5.335,5.344,5.3475,5.3547,5.3484,5.3564,5.3617,5.3581,5.3682,5.3705,5.3756,5.3872,5.3925,5.3895,5.4104,5.4042,5.4052,5.4057,5.4118,5.4139,5.4158,5.3914,5.3913,5.3912,0,0,5.3415,5.3451,5.3541,5.3577,5.363,5.364,5.3662,5.3709,5.3722,5.3824,5.3797,5.386,5.3977,5.4012,5.4046,5.4202,5.4177,5.4223,5.4302,5.4365,5.4382,5.4397,5.4449,5.4468,5.4236,5.4236,5.4236,0,5.3482,5.3591,5.359,5.3672,5.371,5.3681,5.3771,5.3806,5.3877,5.3903,5.3869,5.4012,5.4045,5.4167,5.4204,5.4234,5.4256,5.4216,5.438,5.4395,5.4409,5.4458,5.4478,5.4241,5.424,5.424,5.4239,0,5.367,5.3746,5.3812,5.388,5.3927,5.4013,5.4023,5.407,5.4061,5.4075,5.4176,5.4214,5.4283,5.4312,5.4306,5.4433,5.4412,5.438,5.4317,5.4435,5.4481,5.45,5.4248,5.4246,5.4244,5.4243,0,0,5.3858,5.3923,5.3947,5.3976,5.4031,5.4089,5.4172,5.4239,5.4277,5.4327,5.4394,5.4493,5.4461,5.4499,5.4496,5.4552,5.4668,5.4512,5.4513,5.4536,5.4805,5.4827,5.4849,5.4653,5.4657,5.466,5.48,0,5.4004,5.415,5.415,5.4283,5.4351,5.4323,5.4395,5.4435,5.445,5.4508,5.4524,5.4592,5.4548,5.457,5.4624,5.4642,5.4721,5.4633,5.4713,5.4715,5.4697,5.4874,5.4898,5.5028,5.4818,5.4821,5.4823,0,5.4195,5.4249,5.4388,5.443,5.4458,5.4523,5.4582,5.464,5.4684,5.469,5.4732,5.4719,5.4801,5.4738,5.4849,5.4789,5.4822,5.4835,5.484,5.4845,5.4774,5.4879,5.507,5.5088,5.4853,5.485,5.4848,0,5.4312,5.4421,5.4517,5.4543,5.4596,5.4641,5.4665,5.4705,5.4744,5.4796,5.4821,5.4882,5.4915,5.4961,5.4965,5.492,5.5075,5.5014,5.508,5.508,5.5111,5.5109,5.5306,5.5139,5.5139,5.5138,5.5138,0,5.4474,5.4559,5.457,5.4629,5.4723,5.4722,5.4815,5.4835,5.487,5.4931,5.4912,5.4969,5.4971,5.503,5.5033,5.5122,5.5138,5.5143,5.5142,5.5143,5.5141,5.5162,5.5151,5.5144,5.5143,5.5142,5.5141,0,5.462,5.4632,5.4734,5.4775,5.4787,5.4854,5.4887,5.4942,5.4955,5.5031,5.5049,5.5068,5.5135,5.5144,5.5223,5.5224,5.533,5.5322,5.5315,5.5312,5.5376,5.5368,5.559,5.5617,5.5436,5.5438,5.544,0,5.4721,5.4785,5.4832,5.4871,5.4897,5.4961,5.5,5.5001,5.5042,5.5095,5.5143,5.5208,5.526,5.5368,5.5387,5.5447,5.5437,5.5511,5.5446,5.5443,5.5433,5.5427,5.5432,5.5522,5.5524,5.5526,5.5527,0,5.4896,5.4897,5.4955,5.5013,5.506,5.5107,5.515,5.5183,5.5189,5.5236,5.5304,5.5344,5.5423,5.5486,5.5544,5.5567,5.5547,5.5548,5.5565,5.5564,5.5556,5.5557,5.5345,5.5542,5.554,5.5539,5.5539,5.5538,5.5019,5.5074,5.5114,5.5177,5.521,5.525,5.5303,5.5321,5.5377,5.5441,5.5439,5.5512,5.5552,5.5627,5.5654,5.571,5.5686,5.5712,5.5718,5.5724,5.5728,5.555,5.5721,5.5721,5.5721,5.572,5.572,0,5.519,5.5214,5.5272,5.5332,5.5381,5.536,5.5406,5.5448,5.5513,5.5551,5.5602,5.5678,5.5739,5.5763,5.5821,5.5862,5.5854,5.5877,5.5872,5.5876,5.5749,5.5726,5.5882,5.5882,5.5882,5.5882,5.5882,5.5881,5.5284,5.5373,5.5379,5.5484,5.5507,5.5579,5.5606,5.5642,5.5673,5.5758,5.5808,5.5824,5.5855,5.5916,5.597,5.5975,5.5996,5.6022,5.6023,5.5902,5.5886,5.587,5.5848,5.6027,5.6027,5.6145,5.6146,5.6147]},{"header":{"parameterUnit":"m.s-1","parameterCategory":1,"la1":30.2991,"la2":30.254,"lo1":-89.0895,"lo2":-89.0444,"dy":0.0017,"dx":0.0017,"nx":28,"ny":28,"refTime":"2023-07-20T09:00:00:Z","depth":0,"parameterNumber":3,"parameterNumberName":"V-component_of_WINDS"},"data":[0,0,0,0,0,0,0,0,0,0,0,0,0,0,0,0,0,0,0,0,0,0,0,0,0,0,0,0,0,0,0,0,0,0,0,0,0,0,0,0,0,0,0,0,0,0,0,0,0,0,0,0,0,0,0,0,0,0,4.4255,4.4256,0,4.4375,4.4376,4.4377,4.4364,4.4362,4.436,4.4358,4.4476,4.4481,4.4486,0,0,0,0,0,0,0,0,0,0,0,0,0,4.4008,4.4013,4.4255,4.4256,4.4258,4.4374,4.4376,4.4378,4.4364,4.4362,4.4359,4.4357,4.4475,4.4481,4.4487,0,0,0,0,0,0,0,0,0,0,0,0,0,4.412,4.4014,4.4254,4.4265,4.4267,4.4374,4.4376,4.4378,4.4364,4.4361,4.4359,4.4356,4.4473,4.448,4.4487,4.459,0,0,4.451,4.4513,0,0,0,0,0,0,0,0,4.4114,4.4129,4.4262,4.4264,4.4267,4.4351,4.4333,4.4449,4.4365,4.4327,4.4358,4.4355,4.4437,4.4447,4.4476,4.4596,4.4601,4.4511,4.4515,4.4518,4.452,0,0,0,0,0,0,0,4.4106,4.4124,4.4302,4.4264,4.4267,4.4262,4.4275,4.4355,4.4396,4.433,4.433,4.4344,4.4438,4.4469,4.4478,4.4603,4.451,4.4517,4.4522,4.4524,4.4811,4.4814,0,0,0,0,0,0,4.4097,4.4118,4.4298,4.4306,4.4182,4.4269,4.4283,4.4327,4.4396,4.4403,4.4347,4.4343,4.4457,4.447,4.4482,4.4606,4.4518,4.4525,4.4529,4.4808,4.4812,4.4815,0,0,0,0,0,0,4.4091,4.4113,4.4293,4.4212,4.4234,4.4276,4.4326,4.4331,4.4362,4.4408,4.4415,4.4371,4.4456,4.4472,4.4563,4.461,4.4529,4.4535,4.4804,4.4809,4.4814,4.4856,0,0,0,0,0,0,4.4084,4.4111,4.4152,4.4213,4.4239,4.4374,4.4329,4.4335,4.4375,4.4372,4.4433,4.444,4.4455,4.4553,4.4571,4.4619,4.4541,4.48,4.4806,4.4812,4.485,4.4861,4.4871,0,0,0,0,0,4.4076,4.4158,4.4154,4.4176,4.4291,4.4377,4.4392,4.4408,4.4379,4.442,4.4449,4.4438,4.4602,4.4562,4.4583,4.4634,4.4797,4.4805,4.4812,4.4846,4.4859,4.4871,0,0,0,0,0,0,4.4101,4.4167,4.4163,4.4268,4.4317,4.4374,4.4426,4.4422,4.4479,4.4474,4.449,4.4504,4.4596,4.4624,4.4578,4.4736,4.4696,4.4707,4.4714,4.4728,4.4738,4.4729,4.4547,0,0,0,0,0,4.4119,4.4185,4.4238,4.4326,4.4351,4.4384,4.4422,4.4431,4.4482,4.4502,4.4538,4.4587,4.4649,4.469,4.475,4.4854,4.4866,4.4899,4.4909,4.4918,4.4927,4.4983,4.4997,4.4839,4.4839,4.4839,0,0,4.4157,4.4201,4.4241,4.4332,4.4371,4.4437,4.4402,4.4474,4.4522,4.4513,4.4601,4.4629,4.4684,4.4782,4.4827,4.4808,4.4974,4.4927,4.4933,4.4938,4.4991,4.5006,4.502,4.4844,4.4843,4.4842,0,0,4.4259,4.4299,4.4376,4.4416,4.4476,4.4498,4.4516,4.4574,4.4593,4.4683,4.4676,4.4733,4.4841,4.488,4.4914,4.503,4.5021,4.5049,4.5102,4.5156,4.5168,4.5179,4.5219,4.5234,4.5058,4.5058,4.5058,0,4.4297,4.4399,4.4416,4.4489,4.4528,4.4523,4.46,4.4638,4.4713,4.474,4.4718,4.4852,4.4889,4.4995,4.5023,4.5051,4.5071,4.5042,4.5165,4.5177,4.5187,4.5225,4.5241,4.5061,4.5061,4.5061,4.506,0,4.4442,4.4512,4.4567,4.4642,4.4687,4.4762,4.4788,4.4832,4.4836,4.4859,4.4949,4.4993,4.5062,4.5087,4.5092,4.5194,4.518,4.5162,4.5121,4.5205,4.5241,4.5256,4.5065,4.5064,4.5063,4.5063,0,0,4.4564,4.4647,4.4667,4.47,4.4766,4.4819,4.4892,4.496,4.4997,4.5049,4.5109,4.52,4.5183,4.5221,4.523,4.5277,4.5364,4.5253,4.5254,4.5271,4.5478,4.5491,4.5507,4.5359,4.5362,4.5364,4.5472,0,4.4672,4.4803,4.4821,4.4936,4.5,4.4996,4.5059,4.5105,4.5128,4.5184,4.5209,4.5273,4.5246,4.5269,4.5316,4.5344,4.5406,4.5336,4.5414,4.5416,4.54,4.5527,4.5541,4.5641,4.5487,4.5489,4.5491,0,4.4816,4.4873,4.4995,4.5051,4.5078,4.5135,4.5198,4.5252,4.5303,4.5316,4.5359,4.5362,4.5435,4.5392,4.5492,4.5445,4.5477,4.5495,4.55,4.5507,4.5458,4.5536,4.5673,4.5688,4.5514,4.5512,4.551,0,4.4891,4.4998,4.5085,4.5114,4.5181,4.5221,4.525,4.5299,4.5338,4.5392,4.5417,4.5479,4.5513,4.5559,4.5578,4.5545,4.5676,4.5635,4.5688,4.5688,4.5715,4.5713,4.5859,4.5738,4.5738,4.5737,4.5737,0,4.5009,4.5083,4.5119,4.5173,4.5255,4.5274,4.5354,4.5382,4.5425,4.5482,4.5482,4.5535,4.5556,4.5612,4.5626,4.5706,4.5721,4.5733,4.5736,4.5733,4.5731,4.5754,4.5747,4.5741,4.574,4.574,4.5739,0,4.5107,4.5134,4.5228,4.5284,4.53,4.5358,4.5405,4.5455,4.5478,4.555,4.5568,4.5603,4.5668,4.5691,4.5771,4.578,4.5873,4.587,4.5856,4.5856,4.5907,4.5902,4.6072,4.6094,4.5959,4.5961,4.5962,0,4.518,4.5237,4.5299,4.5338,4.537,4.5432,4.5472,4.5492,4.5533,4.5595,4.5638,4.5703,4.5757,4.5862,4.5893,4.5953,4.5951,4.6007,4.596,4.5955,4.5951,4.5947,4.5952,4.6015,4.6016,4.6018,4.6019,0,4.5306,4.5317,4.5376,4.5439,4.5488,4.5538,4.5587,4.5619,4.5645,4.5691,4.5759,4.5801,4.5882,4.5946,4.6008,4.6036,4.6031,4.6033,4.6048,4.6045,4.6034,4.604,4.5879,4.6029,4.6028,4.6027,4.6027,4.6026,4.5393,4.5444,4.5495,4.556,4.5599,4.5645,4.5695,4.5724,4.5781,4.585,4.5857,4.593,4.5978,4.606,4.6091,4.6147,4.6131,4.6154,4.6159,4.6164,4.6167,4.6026,4.6158,4.6158,4.6158,4.6157,4.6157,0,4.5519,4.5552,4.5612,4.568,4.5731,4.5724,4.5777,4.5819,4.5884,4.593,4.5983,4.606,4.6122,4.6158,4.622,4.6257,4.6256,4.6273,4.627,4.6276,4.6178,4.6159,4.6272,4.6272,4.6272,4.6272,4.6272,4.6272,4.559,4.5674,4.5691,4.5794,4.5825,4.5898,4.5929,4.597,4.6007,4.6093,4.6145,4.6169,4.621,4.6275,4.6331,4.634,4.6362,4.638,4.6387,4.6295,4.6283,4.6272,4.6253,4.6385,4.6385,4.648,4.648,4.6481]}]]